FW8032 Weather Reports


time (UTC)temp
C
wind
direction
speed
KPH
gust
KPH
rain 1hr
cm
rain 24hr
cm
rain mn
cm
humidity
%
barometer
mb
20260505171723 11 356 3.2 3.2 0.00 1.02 1.02 82 1009.4
20260505171221 11 73 4.8 4.8 0.00 1.02 1.02 82 1009.1
20260505170717 11 18 3.2 3.2 0.00 1.02 1.02 83 1009.1
20260505170214 11 6 3.2 3.2 0.00 1.02 1.02 82 1009.4
20260505165709 11 48 3.2 3.2 0.00 1.02 1.02 82 1009.1
20260505165206 11 43 4.8 6.4 0.00 1.02 1.02 82 1009.4
20260505164701 12 30 3.2 3.2 0.00 1.02 1.02 82 1009.1
20260505164159 12 31 6.4 6.4 0.00 1.02 1.02 82 1009.4
20260505163657 12 30 4.8 4.8 0.00 1.02 1.02 82 1009.4
20260505163155 12 213 1.6 1.6 0.00 1.02 1.02 84 1009.4
20260505162652 12 25 3.2 3.2 0.00 1.02 1.02 83 1009.4
20260505162149 12 25 3.2 3.2 0.00 1.02 1.02 83 1009.4
20260505161646 12 24 3.2 3.2 0.00 1.02 1.02 84 1009.1
20260505161143 12 12 3.2 3.2 0.00 1.02 1.02 83 1009.4
20260505160641 12 44 4.8 6.4 0.00 1.02 1.02 84 1009.1
20260505160138 12 24 3.2 3.2 0.00 1.02 1.02 86 1009.1
20260505153118 11 43 6.4 6.4 0.00 1.02 1.02 89 1009.1
20260505152614 11 48 3.2 3.2 0.00 1.02 1.02 89 1009.1
20260505152110 11 0 4.8 6.4 0.00 1.02 1.02 90 1008.7
20260505151605 11 354 9.7 9.7 0.00 1.02 1.02 91 1009.4
20260505151103 11 18 3.2 3.2 0.00 1.02 1.02 91 1009.4
20260505150559 11 31 3.2 3.2 0.00 1.02 1.02 92 1009.7
20260505140525 12 25 3.2 3.2 0.00 1.02 1.02 93 1007.7
20260505124938 12 25 4.8 4.8 0.00 1.02 1.02 95 1007.7
20260505124435 12 18 0.0 0.0 0.00 1.02 1.02 95 1007.4
20260505123931 12 12 4.8 4.8 0.00 1.02 1.02 95 1007.4
20260505123428 12 25 0.0 0.0 0.00 1.02 1.02 95 1007.4
20260505122923 12 18 3.2 3.2 0.00 1.02 1.02 95 1007.4
20260505122421 12 24 3.2 3.2 0.00 1.02 1.02 95 1007.4
20260505121918 13 37 3.2 3.2 0.00 1.02 1.02 96 1007.4
20260505121415 13 42 3.2 3.2 0.00 1.02 1.02 96 1007.4
20260505120910 13 30 0.0 0.0 0.00 1.02 1.02 96 1006.6
20260505120407 13 14 3.2 3.2 0.00 1.02 1.02 96 1006.6
20260505115906 13 36 4.8 4.8 0.00 1.02 1.02 96 1006.6
20260505115403 13 30 4.8 4.8 0.00 1.02 1.02 96 1006.6
20260505114901 13 30 3.2 3.2 0.00 1.02 1.02 96 1006.6
20260505114357 13 42 3.2 3.2 0.00 1.02 1.02 96 1006.3
20260505113853 13 30 3.2 3.2 0.00 1.02 1.02 96 1006.6
20260505113350 13 30 3.2 3.2 0.00 1.02 1.02 96 1006.6
20260505112846 13 31 3.2 3.2 0.00 1.02 1.02 96 1006.3
20260505112344 13 42 3.2 3.2 0.00 1.02 1.02 96 1006.3
20260505111839 14 42 3.2 3.2 0.00 1.02 1.02 96 1005.9
20260505111334 14 42 3.2 3.2 0.00 1.02 1.02 96 1005.6
20260505110831 15 20 3.2 3.2 0.00 1.02 1.02 96 1005.9
20260505110328 15 132 3.2 3.2 0.00 1.02 1.02 96 1005.9
20260505101803 15 144 0.0 0.0 0.00 1.02 1.02 96 1006.3
20260505101258 15 144 0.0 0.0 0.00 1.02 1.02 96 1006.3
20260505100755 15 144 0.0 0.0 0.00 1.02 1.02 96 1006.3
20260505100251 15 144 0.0 0.0 0.00 1.02 1.02 96 1006.3
20260505095747 15 149 3.2 3.2 0.10 1.02 1.02 96 1006.6
20260505095245 16 150 0.0 0.0 0.10 1.02 1.02 96 1006.6
20260505094740 16 150 0.0 0.0 0.10 1.02 1.02 96 1006.6
20260505094237 16 150 0.0 0.0 0.10 1.02 1.02 96 1006.3
20260505093733 16 150 0.0 0.0 0.10 1.02 1.02 96 1006.3
20260505093231 16 150 1.6 1.6 0.08 0.99 0.99 96 1005.6
20260505092728 16 150 0.0 0.0 0.08 0.99 0.99 96 1005.6
20260505092227 16 150 0.0 0.0 0.08 0.99 0.99 96 1005.6
20260505091723 16 150 3.2 3.2 0.08 0.99 0.99 96 1005.2
20260505091221 16 150 1.6 1.6 0.03 0.94 0.94 96 1005.2
20260505090718 16 150 0.0 0.0 0.03 0.94 0.94 96 1004.9
20260505090217 16 150 3.2 3.2 0.03 0.94 0.94 96 1005.2
20260505085714 16 150 0.0 0.0 0.18 0.91 0.91 96 1005.2
20260505085212 16 150 0.0 0.0 0.18 0.91 0.91 96 1005.2
20260505084709 16 150 3.2 3.2 0.18 0.91 0.91 96 1005.2
20260505084208 16 150 1.6 1.6 0.18 0.91 0.91 96 1005.6
20260505083704 16 150 3.2 3.2 0.10 0.84 0.84 96 1005.9
20260505083201 16 150 3.2 3.2 0.10 0.84 0.84 95 1005.9
20260505082657 16 150 3.2 3.2 0.08 0.79 0.79 95 1005.6
20260505082154 16 150 3.2 3.2 0.03 0.74 0.74 95 1005.6
20260505081650 16 174 3.2 3.2 0.03 0.74 0.74 95 1004.9
20260505081148 16 155 4.8 4.8 0.03 0.74 0.74 96 1004.9
20260505080645 16 132 4.8 4.8 0.00 0.71 0.71 96 1004.9
20260505080140 16 144 3.2 3.2 0.00 0.71 0.71 96 1004.6
20260505075637 16 90 3.2 3.2 0.08 0.71 0.71 96 1004.6
20260505075133 16 150 4.8 4.8 0.03 0.66 0.66 96 1004.2
20260505074630 16 156 3.2 3.2 0.03 0.66 0.66 96 1004.6
20260505074127 16 191 3.2 3.2 0.03 0.66 0.66 96 1004.6
20260505073625 16 162 3.2 3.2 0.03 0.66 0.66 96 1004.9
20260505073123 16 144 4.8 4.8 0.03 0.66 0.66 96 1005.6
20260505072618 16 150 3.2 3.2 0.03 0.66 0.66 96 1005.6
20260505072116 16 114 4.8 4.8 0.03 0.66 0.66 95 1005.6
20260505071611 16 126 3.2 3.2 0.03 0.66 0.66 95 1005.9
20260505071109 16 144 4.8 4.8 0.00 0.64 0.64 95 1006.6
20260505070606 16 150 3.2 3.2 0.00 0.64 0.64 95 1006.6
20260505065558 16 160 1.6 1.6 0.56 0.64 0.64 95 1008.0
20260505065055 16 162 3.2 3.2 0.51 0.58 0.58 95 1008.4
20260505064551 16 274 1.6 1.6 0.46 0.56 0.56 94 1008.0
20260505064050 16 274 1.6 1.6 0.38 0.46 0.46 94 1008.0
20260505063547 16 274 3.2 3.2 0.38 0.46 0.46 94 1008.0
20260505063043 16 294 3.2 3.2 0.36 0.43 0.43 93 1008.4
20260505062540 16 293 3.2 3.2 0.28 0.36 0.36 93 1008.7
20260505062037 17 240 3.2 3.2 0.18 0.28 0.28 92 1008.4
20260505061534 17 294 4.8 4.8 0.15 0.23 0.23 92 1008.4
20260505061032 17 294 3.2 3.2 0.08 0.15 0.15 90 1008.0
20260505060529 17 294 3.2 3.2 0.03 0.10 0.10 89 1007.7
20260505060026 17 180 3.2 3.2 0.00 0.08 0.08 86 1007.4
20260505055521 18 180 1.6 1.6 0.03 0.03 0.03 83 1006.9
20260505055018 18 180 0.0 0.0 0.00 0.00 0.00 81 1006.9
20260505054516 18 180 3.2 3.2 0.00 0.00 0.00 79 1006.6
20260505054014 19 180 3.2 3.2 0.00 0.00 0.00 76 1006.3
20260505053510 20 180 3.2 3.2 0.00 0.00 0.00 73 1006.3
20260505053007 20 198 3.2 3.2 0.00 0.00 0.00 71 1005.9
20260505052504 20 210 3.2 3.2 0.00 0.00 0.00 68 1005.9
20260505052001 20 144 4.8 4.8 0.00 0.00 0.00 68 1005.6
20260505051458 20 150 4.8 4.8 0.00 0.00 0.00 69 1005.6
20260505050956 20 143 3.2 3.2 0.00 0.00 0.00 69 1005.6
20260505050454 20 162 3.2 3.2 0.00 0.00 0.00 69 1005.6
20260505041422 20 160 4.8 4.8 0.00 0.00 0.00 69 1005.9
20260505040919 20 143 4.8 4.8 0.00 0.00 0.00 69 1005.6
20260505040416 20 137 6.4 6.4 0.00 0.00 0.00 68 1005.6
20260505035913 20 162 3.2 3.2 0.00 0.00 0.00 68 1005.9
20260505035409 21 166 6.4 6.4 0.00 0.00 0.00 67 1005.6
20260505034907 21 162 3.2 3.2 0.00 0.00 0.00 67 1006.3
20260505034403 21 144 3.2 3.2 0.00 0.00 0.00 67 1006.6
20260505033900 20 150 4.8 4.8 0.00 0.00 0.00 67 1006.6
20260505033357 20 132 4.8 4.8 0.00 0.00 0.00 67 1006.3
20260505032855 21 156 3.2 3.2 0.00 0.00 0.00 67 1006.6
20260505032351 21 150 4.8 4.8 0.00 0.00 0.00 67 1006.3
20260505031848 21 174 3.2 3.2 0.00 0.00 0.00 67 1006.3
20260505031345 21 132 6.4 6.4 0.00 0.00 0.00 66 1005.9
20260505030842 21 168 6.4 6.4 0.00 0.00 0.00 66 1006.3
20260505030338 21 162 3.2 3.2 0.00 0.00 0.00 66 1006.3
20260505025833 21 132 4.8 4.8 0.00 0.00 0.00 65 1006.3
20260505025331 21 144 3.2 3.2 0.00 0.00 0.00 65 1006.3
20260505024830 21 162 6.4 8.0 0.00 0.00 0.00 65 1006.3
20260505024327 21 180 4.8 6.4 0.00 0.00 0.00 65 1006.3
20260505023824 21 150 3.2 3.2 0.00 0.00 0.00 65 1005.9
20260505023321 21 156 4.8 4.8 0.00 0.00 0.00 64 1006.3
20260505022818 21 150 4.8 4.8 0.00 0.00 0.00 64 1005.9
20260505022315 21 148 6.4 6.4 0.00 0.00 0.00 64 1005.9
20260505021813 21 148 3.2 3.2 0.00 0.00 0.00 64 1006.3
20260505021309 21 149 6.4 6.4 0.00 0.00 0.00 65 1005.9
20260505020805 21 150 3.2 3.2 0.00 0.00 0.00 65 1005.9
20260505020301 21 162 3.2 3.2 0.00 0.00 0.00 64 1005.6
20260505015758 21 149 3.2 3.2 0.00 0.00 0.00 64 1005.6
20260505015254 21 144 6.4 6.4 0.00 0.00 0.00 63 1005.6
20260505014751 21 150 3.2 3.2 0.00 0.00 0.00 64 1005.6
20260505014243 21 156 3.2 3.2 0.00 0.00 0.00 64 1005.6
20260505013739 22 156 4.8 6.4 0.00 0.00 0.00 63 1005.6
20260505013237 22 132 3.2 3.2 0.00 0.00 0.00 62 1005.9
20260505012735 22 165 4.8 4.8 0.00 0.00 0.00 62 1005.6
20260505012232 22 166 3.2 3.2 0.00 0.00 0.00 61 1005.6
20260505011727 22 150 4.8 6.4 0.00 0.00 0.00 61 1005.6
20260505011225 22 138 4.8 6.4 0.00 0.00 0.00 61 1005.6
20260505010720 22 142 3.2 3.2 0.00 0.00 0.00 61 1005.9
20260505010217 22 165 3.2 3.2 0.00 0.00 0.00 61 1005.9
20260505005713 22 166 3.2 3.2 0.00 0.00 0.00 61 1005.6
20260505005211 22 168 3.2 3.2 0.00 0.00 0.00 61 1005.9
20260505004708 22 180 3.2 3.2 0.00 0.00 0.00 60 1005.6
20260505004204 23 162 3.2 3.2 0.00 0.00 0.00 60 1005.6
20260505003702 23 138 3.2 3.2 0.00 0.00 0.00 59 1005.6
20260505003159 23 172 3.2 3.2 0.00 0.00 0.00 58 1005.6
20260505002655 23 199 3.2 3.2 0.00 0.00 0.00 60 1005.9
20260505002153 23 168 3.2 3.2 0.00 0.00 0.00 59 1005.9
20260505001650 23 155 3.2 3.2 0.00 0.00 0.00 58 1005.9
20260505001148 23 192 3.2 3.2 0.00 0.00 0.00 57 1005.6
20260505000644 23 181 3.2 3.2 0.00 0.00 0.00 58 1005.2
20260505000142 23 185 3.2 3.2 0.00 0.00 0.00 58 1005.6
20260504235638 24 150 3.2 3.2 0.00 0.00 0.00 59 1005.6
20260504235135 24 210 6.4 6.4 0.00 0.00 0.00 56 1005.2
20260504234633 24 343 3.2 3.2 0.00 0.00 0.00 57 1005.2
20260504234130 24 156 3.2 3.2 0.00 0.00 0.00 58 1005.6
20260504233625 24 150 3.2 3.2 0.00 0.00 0.00 56 1005.2
20260504233121 24 324 3.2 3.2 0.00 0.00 0.00 57 1005.2
20260504232619 24 212 4.8 4.8 0.00 0.00 0.00 57 1005.6
20260504232116 25 169 3.2 3.2 0.00 0.00 0.00 56 1005.6
20260504231613 25 264 3.2 3.2 0.00 0.00 0.00 57 1005.2
20260504231109 25 202 3.2 3.2 0.00 0.00 0.00 54 1005.6
20260504230604 25 174 4.8 4.8 0.00 0.00 0.00 52 1005.6
20260504230058 25 162 6.4 8.0 0.00 0.00 0.00 51 1005.6
20260504225555 26 330 3.2 3.2 0.00 0.00 0.00 52 1005.2
20260504225052 26 276 3.2 3.2 0.00 0.00 0.00 50 1005.2
20260504224549 26 175 3.2 3.2 0.00 0.00 0.00 51 1005.2
20260504224046 26 186 3.2 3.2 0.00 0.00 0.00 52 1005.2
20260504223543 26 182 4.8 6.4 0.00 0.00 0.00 50 1005.2
20260504223038 26 241 3.2 3.2 0.00 0.00 0.00 51 1004.9
20260504222535 26 116 6.4 8.0 0.00 0.00 0.00 50 1004.9
20260504222033 27 138 6.4 6.4 0.00 0.00 0.00 48 1004.9
20260504221530 27 192 3.2 3.2 0.00 0.00 0.00 47 1004.9
20260504221027 26 186 6.4 6.4 0.00 0.00 0.00 48 1004.9
20260504220523 26 144 3.2 3.2 0.00 0.00 0.00 49 1004.9
20260504220020 27 201 6.4 8.0 0.00 0.00 0.00 49 1004.9
20260504215517 27 210 3.2 3.2 0.00 0.00 0.00 51 1004.9
20260504215014 26 186 3.2 3.2 0.00 0.00 0.00 49 1004.9
20260504214510 26 264 3.2 3.2 0.00 0.00 0.00 50 1005.2
20260504214006 27 210 6.4 6.4 0.00 0.00 0.00 47 1004.9
20260504213503 26 179 4.8 6.4 0.00 0.00 0.00 49 1005.2
20260504213000 27 204 6.4 8.0 0.00 0.00 0.00 48 1005.2
20260504212456 27 264 4.8 4.8 0.00 0.00 0.00 49 1004.9
20260504211954 27 176 4.8 6.4 0.00 0.00 0.00 49 1005.6
20260504211450 27 247 8.0 8.0 0.00 0.00 0.00 46 1005.6
20260504210948 27 180 6.4 6.4 0.00 0.00 0.00 47 1005.6
20260504210444 27 185 3.2 3.2 0.00 0.00 0.00 48 1005.6
20260504205941 27 153 3.2 3.2 0.00 0.00 0.00 48 1005.2
20260504205439 27 173 4.8 4.8 0.00 0.00 0.00 48 1005.6
20260504204937 27 180 4.8 4.8 0.00 0.00 0.00 48 1005.6
20260504204435 27 172 3.2 3.2 0.00 0.00 0.00 49 1005.9
20260504203934 27 172 11.3 11.3 0.00 0.00 0.00 48 1005.9
20260504203431 27 181 9.7 11.3 0.00 0.00 0.00 47 1005.6
20260504202927 27 162 6.4 6.4 0.00 0.00 0.00 47 1005.9
20260504202424 27 210 8.0 8.0 0.00 0.00 0.00 50 1005.9
20260504201920 27 186 6.4 8.0 0.00 0.00 0.00 48 1005.9
20260504201418 27 162 8.0 8.0 0.00 0.00 0.00 48 1005.9
20260504200915 27 192 4.8 4.8 0.00 0.00 0.00 49 1005.9
20260504200412 27 198 4.8 6.4 0.00 0.00 0.00 49 1005.9
20260504195908 27 306 6.4 6.4 0.00 0.00 0.00 48 1006.3
20260504195404 27 132 3.2 3.2 0.00 0.00 0.00 50 1006.3
20260504194901 26 221 4.8 4.8 0.00 0.00 0.00 52 1006.3
20260504194357 26 176 11.3 11.3 0.00 0.00 0.00 50 1006.6
20260504193853 26 182 11.3 11.3 0.00 0.00 0.00 49 1006.6
20260504193350 26 260 3.2 3.2 0.00 0.00 0.00 50 1006.3
20260504192849 26 240 8.0 9.7 0.00 0.00 0.00 50 1006.6
20260504192346 26 300 3.2 3.2 0.00 0.00 0.00 50 1006.6
20260504191844 26 156 11.3 11.3 0.00 0.00 0.00 49 1006.9
20260504191342 26 180 4.8 4.8 0.00 0.00 0.00 51 1006.6
20260504190837 26 156 4.8 4.8 0.00 0.00 0.00 52 1006.6
20260504190333 26 126 6.4 6.4 0.00 0.00 0.00 52 1006.3
20260504185830 26 229 8.0 8.0 0.00 0.00 0.00 51 1006.9
20260504185327 26 204 6.4 6.4 0.00 0.00 0.00 51 1006.6
20260504184823 26 201 6.4 6.4 0.00 0.00 0.00 51 1006.6
20260504184319 25 282 3.2 3.2 0.00 0.00 0.00 53 1006.6
20260504183815 25 276 3.2 3.2 0.00 0.00 0.00 57 1006.6
20260504183313 25 270 3.2 3.2 0.00 0.00 0.00 51 1006.6
20260504182810 25 210 8.0 8.0 0.00 0.00 0.00 51 1006.6
20260504182308 25 192 3.2 3.2 0.00 0.00 0.00 52 1006.9
20260504181805 25 222 9.7 9.7 0.00 0.00 0.00 50 1006.9
20260504181302 25 150 4.8 6.4 0.00 0.00 0.00 54 1006.6
20260504180801 25 150 6.4 6.4 0.00 0.00 0.00 52 1006.6
20260504180259 25 122 9.7 9.7 0.00 0.00 0.00 53 1006.9
20260504175757 25 190 3.2 3.2 0.00 0.00 0.00 52 1006.6
20260504175253 25 312 3.2 3.2 0.00 0.00 0.00 53 1006.6
20260504174751 25 114 9.7 9.7 0.00 0.00 0.00 52 1006.9
20260504174249 25 198 9.7 11.3 0.00 0.00 0.00 51 1006.9
20260504173745 25 168 6.4 6.4 0.00 0.00 0.00 53 1006.9
20260504173242 25 230 4.8 4.8 0.00 0.00 0.00 54 1007.4
20260504172739 25 232 6.4 8.0 0.00 0.00 0.00 52 1007.4
20260504172235 24 156 8.0 9.7 0.00 0.00 0.00 54 1007.4